Weather History for EGPN - November, 2012

Change the Weather History Date:

Tuesday, November 6, 2012

  Actual Average Record
Temperature  
Mean Temperature 46 °F -  
Max Temperature 51 °F 46 °F - ()
Min Temperature 42 °F 39 °F - ()
Degree Days  
Heating Degree Days 18    
Moisture  
Dew Point 43 °F    
Average Humidity 85    
Maximum Humidity 93    
Minimum Humidity 76    
Precipitation  
Precipitation 0.00 in - - ()
Sea Level Pressure  
Sea Level Pressure 29.86 in    
Wind  
Wind Speed 13 mph ()    
Max Wind Speed 24 mph    
Max Gust Speed -    
Visibility 6.2 miles    
Events Rain    
T = Trace of Precipitation, MM = Missing Value Source: Averaged Metar Reports

Daily Weather History Graph

Daily Weather History Graph

Search for Another Location

Airport or City:

Trip Planner

Search our weather history database for the weather conditions in past years. The results will help you decide how hot, cold, wet, or windy it might be!

Date:

Astronomy

Nov. 06, 2012 Rise Set
Actual Time 7:32 AM GMT 4:18 PM GMT
Civil Twilight 6:50 AM GMT 4:59 PM GMT
Nautical Twilight 6:05 AM GMT 5:44 PM GMT
Astronomical Twilight 5:21 AM GMT 6:28 PM GMT
Moon 10:53 PM GMT (11/6) 1:09 PM GMT (11/6)
Length of Visible Light 10h 08m
Length of Day
8h 46m
Waning Gibbous, 55% of the Moon is Illuminated
Nov 6
Waning Gibbous
Nov 7
Last Quarter
Nov 13
New
Nov 20
First Quarter
Nov 28
Full

Hourly Weather History & Observations

Time (GMT) Temp. Windchill Dew Point Humidity Pressure Visibility Wind Dir Wind Speed Gust Speed Precip Events Conditions
6:50 AM 42.8 °F 35.4 °F 41.0 °F 93% 29.83 in 6.2 mi West 15.0 mph - N/A Rain Light Rain Showers
7:20 AM 42.8 °F 35.8 °F 41.0 °F 93% 29.80 in 6.2 mi West 13.8 mph - N/A Rain Light Rain Showers
7:50 AM 44.6 °F 38.8 °F 41.0 °F 87% 29.80 in 6.2 mi West 11.5 mph - N/A Rain Light Rain Showers
8:20 AM 44.6 °F 38.4 °F 42.8 °F 93% 29.80 in 6.2 mi West 12.7 mph - N/A   Partly Cloudy
8:50 AM 44.6 °F 37.2 °F 41.0 °F 87% 29.80 in 6.2 mi West 17.3 mph - N/A   Partly Cloudy
9:20 AM 44.6 °F 36.9 °F 41.0 °F 87% 29.80 in 6.2 mi WSW 18.4 mph - N/A   Partly Cloudy
9:50 AM 46.4 °F 38.1 °F 39.2 °F 76% 29.80 in 6.2 mi WSW 24.2 mph - N/A   Partly Cloudy
10:20 AM 46.4 °F 38.3 °F 41.0 °F 81% 29.80 in 6.2 mi WSW 23.0 mph - N/A   Partly Cloudy
10:50 AM 46.4 °F 39.5 °F 41.0 °F 81% 29.83 in 6.2 mi WSW 17.3 mph - N/A   Partly Cloudy
11:20 AM 46.4 °F 40.1 °F 41.0 °F 81% 29.83 in 6.2 mi SW 15.0 mph - N/A   Partly Cloudy
11:50 AM 46.4 °F 41.9 °F 42.8 °F 87% 29.83 in 6.2 mi SW 9.2 mph - N/A   Partly Cloudy
12:20 PM 46.4 °F 40.4 °F 42.8 °F 87% 29.83 in 6.2 mi WSW 13.8 mph - N/A   Partly Cloudy
12:50 PM 46.4 °F 41.9 °F 42.8 °F 87% 29.83 in 6.2 mi WSW 9.2 mph - N/A   Partly Cloudy
1:20 PM 51.8 °F - 44.6 °F 76% 29.83 in 6.2 mi West 16.1 mph - N/A   Partly Cloudy
1:50 PM 51.8 °F - 44.6 °F 76% 29.83 in 6.2 mi West 12.7 mph - N/A   Scattered Clouds
2:20 PM 48.2 °F - 44.6 °F 87% 29.83 in 6.2 mi West 11.5 mph - N/A   Mostly Cloudy
2:50 PM 50.0 °F - 44.6 °F 82% 29.86 in 6.2 mi West 12.7 mph - N/A   Mostly Cloudy
3:20 PM 50.0 °F - 44.6 °F 82% 29.86 in 6.2 mi West 17.3 mph - N/A   Mostly Cloudy
3:50 PM 48.2 °F - 42.8 °F 82% 29.89 in 6.2 mi West 15.0 mph - N/A   Scattered Clouds
4:20 PM 46.4 °F 40.4 °F 42.8 °F 87% 29.89 in 6.2 mi WSW 13.8 mph - N/A   Scattered Clouds
4:50 PM 46.4 °F 41.1 °F 42.8 °F 87% 29.89 in 6.2 mi WSW 11.5 mph - N/A   Scattered Clouds
5:20 PM 46.4 °F 38.7 °F 42.8 °F 87% 29.89 in 6.2 mi West 20.7 mph - N/A   Partly Cloudy
5:50 PM 46.4 °F 39.5 °F 42.8 °F 87% 29.92 in 6.2 mi West 17.3 mph - N/A   Partly Cloudy
6:20 PM 46.4 °F 40.4 °F 44.6 °F 93% 29.92 in 6.2 mi West 13.8 mph - N/A   Partly Cloudy
6:50 PM 46.4 °F 40.7 °F 42.8 °F 87% 29.92 in 6.2 mi West 12.7 mph - N/A   Partly Cloudy
7:20 PM 46.4 °F 40.7 °F 42.8 °F 87% 29.92 in 6.2 mi WNW 12.7 mph - N/A   Partly Cloudy
7:50 PM 46.4 °F 40.4 °F 41.0 °F 81% 29.92 in 6.2 mi WNW 13.8 mph - N/A   Partly Cloudy
8:20 PM 48.2 °F - 42.8 °F 82% 29.92 in 6.2 mi West 13.8 mph - N/A   Partly Cloudy
8:50 PM 51.8 °F - 46.4 °F 82% 29.95 in 6.2 mi West 12.7 mph - N/A   Partly Cloudy
9:20 PM 46.4 °F 40.4 °F 41.0 °F 81% 29.95 in 6.2 mi West 13.8 mph - N/A   Partly Cloudy